Find Local Weather

World > North America > United States > Indiana

Greensburg, Indiana Regional Weather

Lat: 39.34N, Lon: 85.48W
Wx Zone: INZ065
Feedback
Expires:201805241600;;458606
ASUS43 KIND 241509
RWRIN 

WEATHER ROUNDUP FOR INDIANA
NATIONAL WEATHER SERVICE INDIANAPOLIS IN
1100 AM EDT THU MAY 24 2018

NOTE: "FAIR" INDICATES FEW OR NO CLOUDS BELOW 12,000 FEET WITH NO
SIGNIFICANT WEATHER AND/OR OBSTRUCTIONS TO VISIBILITY.

* - STATION DOES NOT REPORT WEATHER SUCH AS PRECIPITATION OR FOG.

+ - STATION NOT QUALITY CONTROLLED BY THE NATIONAL WEATHER SERVICE.
    USE DATA WITH CAUTION...ESPECIALLY DEWPOINT AND RELATIVE
    HUMIDITY OBSERVATIONS.


INZ030>032-037>040-046>048-054>057-064-065-241600-
CENTRAL INDIANA
  
CITY           SKY/WX    TMP DP  RH WIND       PRES   REMARKS
ANDERSON       SUNNY     75  52  43 S6        30.24F                  
COLUMBUS       SUNNY     73  52  46 E9        30.22F                  
FISHERS *+     FAIR      75  59  57 SE5       30.23                   
FRANKFORT +    FAIR      78  55  44 S5        30.24F                  
GREENWOOD *+   FAIR      74  55  52 S8        30.23F                  
INDIANAPOLIS   FAIR      75  55  49 SE8       30.21F                  
-EAGLE CREEK   FAIR      74  55  51 SE6       30.21F                  
KOKOMO +       FAIR      74  57  55 S10       30.24F                  
MARION +       FAIR      73  53  50 CALM      30.24F                  
MT COMFORT *+  FAIR      73  59  60 S8        30.23F                  
SHELBYVILLE    FAIR      76  53  44 E8        30.21F                  
ZIONSVILLE +   FAIR      73  55  54 S6        30.23F                  

$$


SKY/WX - Weather  TMP - Temperature  DP - Dewpoint  RH - Relative Humidity
WIND - Wind Direction/Speed PRES - Barometric Pressure